星链-32951 (STARLINK-32951)

导读

STARLINK-32951是美国SpaceX星链星座的卫星,于2025年4月13日发射入轨,属于星链低轨互联网星座组网卫星。星链项目旨在为全球提供高速卫星互联网接入服务,该卫星加入后进一步扩充了星链星座的规模,提升全球尤其是偏远地区网络覆盖能力,推动低轨卫星通信网络建设。

基本信息
目录编号:
63562
目录名称:
STARLINK-32951
国际标识:
2025-075Q
轨道中心:
EARTH
卫星名称:
星链-32951
卫星全名:
星链-32951 (STARLINK-32951)
卫星状态:
在轨 (已飞行427 天)
发射日期:
2025-04-13 UTC
国别 :
美国 (US)
星等 :
--
轨道信息
数据来源 国际轨道数据
星历时间: 2026-06-12T10:13:20+0800
2天前
查看轨道信息
半长轴: 6861.144km
偏心率: 0.0002429
轨道倾角: 43.002°
近地点辐角 274.542°
升交点赤经 97.594°
平近点角 85.515°
近地点: 481.34km
远地点: 484.674km
周期: 94.266分钟
每日圈数: 15.275943
详细信息
固有亮度:
5
最大亮度:
2.5
卫星平台:
Starlink V1.0
覆盖范围:
全球
运营商:
太空探索技术公司
运营商所在国:
美国
制造商(研发单位):
太空探索技术公司
制造商所在国:
美国
使用方式:
暂无
卫星简介
Starlink 计划是 SpaceX 推出的全球卫星互联网项目,通过发射低轨道卫星,为全球尤其是偏远地区提供高速、低延迟的互联网服务。自 2019 年起,Starlink 已部署数千颗卫星,旨在缩小全球数字鸿沟,推动互联网普及。该项目还为军事、航空等行业提供通信支持,带来广泛经济效益。
2D轨道图
3D轨道图
轨道高度分析图
轨道倾角分析图
轨道综合分析图
查看轨道综合分析图